sat.trackr.live / text

‹ back to catalog

STARLINK-3276

NORAD 50189 · 2021-125AK

PAYLOAD ACTIVE UNKNOWN

§ Identity

Operator
Country
US
Launch date
2021-12-18
Launch site
AFWTR
Launch vehicle
Mass (kg)
RCS (m²)

Purposes: comms

External: N2YO · Heavens-Above · Gunter

§ Orbital elements

Epoch: 2026-09-15T20:59:03.955776Z

Period
94.75 min
Inclination
53.2142°
Eccentricity
0.0002609
Mean motion
15.19742985 rev/d
Perigee alt
504.8 km
Apogee alt
508.4 km
Semi-major
6,884.8 km
B*
8.0453e-4
RAAN
104.6368°
Arg perigee
64.1296°
Mean anomaly
295.9970°
Rev number
26,550

§ Raw data

STARLINK-32761 50189U 21125AK  26258.87435134  .00017134  00000+0  80453-3 0  99902 50189  53.2142 104.6368 0002609  64.1296 295.9970 15.19742985265505

JSON: /api/v1/satellites/50189 · /tle

For live sub-satellite position, see the globe view (requires WebGL).

§ Visibility from observer

Set your observer location to see the next 7 days of passes ≥ 10°. The values pass through the URL so the page stays shareable.

No JS? Fill the form by hand. The geolocation button needs JavaScript.